Krabi, Thailand

9:53 AM ICT on September 30, 2016 (GMT +0700)
Krabi

Weather History for VTSG - August, 2014

Change the Weather History Date:

Saturday, August 16, 2014

  Actual Average (VTSP) Record (VTSP)
Temperature  
Mean Temperature 78 °F -  
Max Temperature 84 °F 88 °F 93 °F (1997)
Min Temperature 71 °F 78 °F 71 °F (1999)
Cooling Degree Days 12    
Growing Degree Days 28 (Base 50)    
Moisture  
Dew Point 73 °F    
Average Humidity 89    
Maximum Humidity 100    
Minimum Humidity 70    
Precipitation  
Precipitation 0.00 in - - ()
Sea Level Pressure  
Sea Level Pressure 29.87 in    
Wind  
Wind Speed 3 mph ()    
Max Wind Speed 10 mph    
Max Gust Speed -    
Visibility 4.6 miles    
Events Fog , Rain    
Averages and records for this station are not official NWS values.
T = Trace of Precipitation, MM = Missing Value Source: Averaged Metar Reports

Daily Weather History Graph

Daily Weather History Graph

Search for Another Location

Airport or City:

Trip Planner

Search our weather history database for the weather conditions in past years. The results will help you decide how hot, cold, wet, or windy it might be!

Date:

Astronomy

Aug. 16, 2014 Rise Set
Actual Time 6:16 AM ICT 6:39 PM ICT
Civil Twilight 5:55 AM ICT 7:01 PM ICT
Nautical Twilight 5:30 AM ICT 7:26 PM ICT
Astronomical Twilight 5:04 AM ICT 7:51 PM ICT
Moon 11:23 PM ICT (8/16) 11:12 AM ICT (8/16)
Length of Visible Light 13h 05m
Length of Day
12h 22m
Waning Gibbous, 64% of the Moon is Illuminated
Aug 16
Waning Gibbous
Aug 17
Last Quarter
Aug 25
New
Sep 2
First Quarter
Sep 9
Full

Hourly Weather History & Observations

Time (ICT) Temp. Heat Index Dew Point Humidity Pressure Visibility Wind Dir Wind Speed Gust Speed Precip Events Conditions
12:00 AM 73.4 °F - 71.6 °F 94% 29.92 in 5.0 mi ENE 2.3 mph - N/A   Partly Cloudy
1:00 AM 73.4 °F - 71.6 °F 94% 29.89 in 5.0 mi NNE 2.3 mph - N/A   Partly Cloudy
2:00 AM 73.4 °F - 71.6 °F 94% 29.86 in 5.0 mi Calm Calm - N/A   Scattered Clouds
3:00 AM 73.4 °F - 71.6 °F 94% 29.86 in 4.3 mi North 3.5 mph - N/A   Partly Cloudy
4:00 AM 71.6 °F - 71.6 °F 100% 29.83 in 2.5 mi Calm Calm - N/A   Scattered Clouds
5:00 AM 73.4 °F - 71.6 °F 94% 29.83 in 0.6 mi Variable 1.2 mph - N/A Fog Fog
6:00 AM 73.4 °F - 71.6 °F 94% 29.86 in 0.5 mi Variable 2.3 mph - N/A Fog Fog
7:00 AM 73.4 °F - 71.6 °F 94% 29.86 in - NNE 3.5 mph - N/A Fog Fog
8:00 AM 73.4 °F - 71.6 °F 94% 29.89 in 1.4 mi Variable 1.2 mph - N/A   Mostly Cloudy
9:00 AM 77.0 °F - 75.2 °F 94% 29.92 in 4.3 mi Variable 2.3 mph - N/A   Mostly Cloudy
10:00 AM 82.4 °F 89.5 °F 75.2 °F 79% 29.92 in 5.0 mi SSW 8.1 mph - N/A   Mostly Cloudy
12:00 PM 78.8 °F - 75.2 °F 89% 29.92 in 5.0 mi WSW 4.6 mph - N/A Rain Light Rain
1:00 PM 82.4 °F 89.5 °F 75.2 °F 79% 29.89 in 5.0 mi SW 10.4 mph - N/A   Mostly Cloudy
2:00 PM 78.8 °F - 75.2 °F 89% 29.95 in 5.0 mi SSW 3.5 mph - N/A Rain Light Rain
3:00 PM 82.4 °F 89.5 °F 75.2 °F 79% 29.83 in 6.2 mi SSW 10.4 mph - N/A   Mostly Cloudy
4:00 PM 82.4 °F 88.2 °F 73.4 °F 74% 29.83 in 6.2 mi SW 5.8 mph - N/A   Mostly Cloudy
5:00 PM 84.2 °F 90.9 °F 73.4 °F 70% 29.80 in 6.2 mi WSW 5.8 mph - N/A   Scattered Clouds
6:00 PM 82.4 °F 88.2 °F 73.4 °F 74% 29.80 in 6.2 mi West 4.6 mph - N/A   Mostly Cloudy
7:00 PM 77.0 °F - 73.4 °F 89% 29.83 in 5.6 mi Variable 4.6 mph - N/A   Partly Cloudy
8:00 PM 75.2 °F - 73.4 °F 94% 29.83 in 5.6 mi Variable 1.2 mph - N/A   Unknown
9:00 PM 75.2 °F - 73.4 °F 94% 29.86 in 5.6 mi SE 3.5 mph - N/A   Unknown
10:00 PM 75.2 °F - 73.4 °F 94% 29.86 in 5.6 mi Calm Calm - N/A   Partly Cloudy
11:00 PM 75.2 °F - 73.4 °F 94% 29.86 in 5.0 mi Variable 2.3 mph - N/A   Scattered Clouds